Regional Weather Roundup
Issued by NWS

Home | Current Version | Previous Version | Graphics & Text | Print | Product List | Glossary On
Versions: 1 2 3 4 5 6 7 8 9 10 11 12 13 14 15 16 17 18 19 20 21 22 23 24 25 26 27 28 29 30 31 32 33 34 35 36 37 38 39 40 41 42 43 44 45 46 47 48 49 50
109
ASUS43 KLSX 242259
RWRMO

WEATHER SUMMARY FOR MISSOURI
NATIONAL WEATHER SERVICE SPRINGFIELD MO
600 PM CDT WED MAY 24 2017

NOTE: "FAIR" INDICATES FEW OR NO CLOUDS BELOW 12,000 FEET WITH NO
       SIGNIFICANT WEATHER AND/OR OBSTRUCTIONS TO VISIBILITY.
       CURRENT SKY AND/OR WEATHER CONDITIONS ARE NOT AVAILABLE FOR
       CHILLICOTHE AND FARMINGTON.

MOZ001>031-035>038-043-044-053-054-250000-
...NORTHERN AND WESTERN MISSOURI...

CITY           SKY/WX    TMP DP  RH WIND       PRES   REMARKS
KANSAS CTY INT PTSUNNY   64  49  57 N9        29.67S
KANSAS C DTWN  MOSUNNY   68  46  45 N10G20    29.66S
LEE`S SUMMIT   MOSUNNY   66  49  54 N9        29.67S
ST JOSEPH      PTSUNNY   65  50  58 NE12      29.68R
CHILLICOTHE      N/A     64  51  62 VRB5      29.66S
KIRKSVILLE     PTSUNNY   63  52  67 N12       29.65S

$$
MOZ066>068-077>081-088>096-101>105-250000-
...SOUTHWEST MISSOURI...

CITY           SKY/WX    TMP DP  RH WIND       PRES   REMARKS
SPRINGFIELD    CLOUDY    57  52  83 NW10      29.67S
JOPLIN         CLOUDY    67  50  54 NW7       29.69F
BRANSON        PTSUNNY   55  50  82 W7        29.69S

$$
MOZ032>034-039>042-045>050-055>058-069>072-250000-
...CENTRAL MISSOURI...

CITY           SKY/WX    TMP DP  RH WIND       PRES   REMARKS
COLUMBIA       PTSUNNY   65  47  52 NW12      29.62R
JEFFERSON CITY PTSUNNY   67  44  43 N6        29.61S
ROLLA          SUNNY     64  47  53 NW13      29.60S
SEDALIA        PTSUNNY   65  53  65 N9        29.66R
WARRENSBURG    MOSUNNY   61  54  77 W3        29.67S
OSAGE BEACH    MOSUNNY   64  48  56 W7        29.64S

$$
MOZ051-052-059>065-250000-
...EAST CENTRAL MISSOURI...

CITY           SKY/WX    TMP DP  RH WIND       PRES   REMARKS
ST LOUIS INTL  PTSUNNY   68  48  48 N17G23    29.56R
SPIRIT OF STL  MOSUNNY   67  49  52 W15G21    29.57R
ST CHARLES     LGT RAIN  59  53  80 N8        29.56R

$$
MOZ072>076-082>087-097>100-106>115-250000-
...SOUTH CENTRAL AND SOUTHEAST MISSOURI...

CITY           SKY/WX    TMP DP  RH WIND       PRES   REMARKS
CAPE GIRARDEAU CLOUDY    64  46  52 NW12      29.54S
FARMINGTON     PTSUNNY   61  50  67 NW10      29.58S
POPLAR BLUFF   MOSUNNY   65  50  58 NW8       29.57F
WEST PLAINS    MOSUNNY   57  47  69 W8        29.64R

$$




USA.gov is the U.S. government's official web portal to all federal, state and local government web resources and services.